Tracking 25612 objects as of 20-May-2022
HD Live streaming from Space Station
objects crossing your sky now

ATLAS CENTAUR R/B

Track ATLAS CENTAUR R/B now!


NORAD ID: 10025
Int'l Code: 1977-041B
Perigee: 614.9 km
Apogee: 36,179.3 km
Inclination: 21.8 °
Period: 646.5 minutes
Semi major axis: 24768 km
RCS: 18.6679 m2 (large)
Launch date: May 26, 1977
Source: United States (US)
Launch site: AIR FORCE EASTERN TEST RANGE (AFETR)

Note: This is a ROCKET BODY
aabbcc
Your satellite tracking list
Your tracking list is empty




NASA's NSSDC Master Catalog

Two Line Element Set (TLE):
1 10025U 77041B   22139.57698707 -.00000112  00000-0 -33236-3 0  9999
2 10025  21.7897  55.1806 7179481 289.6657 281.9408  2.22722818364749
Source of the keplerian elements: AFSPC